Location: Fort Worth, Tx
(32.7431°N, 97.3695°W)
Time: 19:54:48
(UTC-04:00)

Vanguard 1 Rocket - Pass Details

Date: 20 September 2024
Orbit: 650 x 4218 km, 34.3° (Epoch: 11 October)

Event Time Altitude Azimuth Distance (km) Brightness Sun altitude
Exits shadow 02:49:41 20° 89° (E) 4,194 10.7 -55.8°
Drops below altitude 10° 02:54:49 10° 78° (ENE) 5,573 11.5 -55.6°
Sets 03:00:58 0° 71° (ENE) 7,199 12.3 -55.2°
